Location: Newark
(25.0000°N, 73.5000°E)
Time: 22:29:54
(UTC+00:00)

Tiros 1 - Visible Passes

Search period start: 30 July 2021 00:00
Search period end: 09 August 2021 00:00
Orbit: 630 x 664 km, 48.4° (Epoch: 30 July)

Date Brightness Start Highest point End Pass type
(mag) Time Alt. Az. Time Alt. Az. Time Alt. Az.
05 Aug 10.0 16:43:14 10° N 16:43:24 10° N 16:43:24 10° N visible
06 Aug 10.1 17:07:24 10° NNW 17:07:53 12° NNW 17:07:53 12° NNW visible
07 Aug 9.7 15:53:27 10° NNE 15:54:25 11° NNE 15:54:47 10° NNE visible
08 Aug 9.3 16:17:14 10° NNW 16:19:21 19° N 16:19:21 19° N visible
